Location: Sobotiste
(48.7170°N, 17.4000°E)
Time: 05:34:52
(UTC+02:00)

METEOR M2 - Pass Details

Date: 17 March 2026
Orbit: 817 x 824 km, 98.5° (Epoch: 17 April)

Event Time Altitude Azimuth Distance (km) Brightness Sun altitude
Rises 03:17:31 0° 23° (NNE) 3,372 ? -26.4°
Reaches altitude 10° 03:20:14 10° 35° (NE) 2,434 ? -26.0°
Maximum altitude 03:24:47 27° 93° (E) 1,533 ? -25.4°
Drops below altitude 10° 03:29:17 10° 151° (SSE) 2,418 ? -24.8°
Sets 03:31:58 0° 163° (SSE) 3,345 ? -24.4°
